Simultaneous Nadir Overpasses (SNOs) Predictions

Prediction of SNOs between GOES-16 and METOP-C Satellite Orbit:

Table of predicted SNOs for the next 14.0 days since TLE Epoch: 7/31/2021
Index Date Time (GOES-16) GOES-16 Lat,Lon METOP-C Lat,Lon Distance(km) Time Diff (sec)
1 07/31/2021 02:51:14 0.00, -75.20 0.00, -79.65 495.14 80
2 08/01/2021 02:27:38 0.01, -75.20 0.20, -74.45 86.27 80
3 08/02/2021 14:49:10 0.00, -75.24 0.84, -79.01 428.92 80
4 08/03/2021 14:25:50 -0.01, -75.25 -0.30, -74.02 140.98 80
5 08/05/2021 02:47:28 -0.01, -75.24 -0.75, -78.61 383.67 80
6 08/06/2021 02:24:09 0.01, -75.25 0.39, -73.62 186.27 80
7 08/07/2021 14:45:40 0.01, -75.29 0.64, -78.18 328.35 80
8 08/08/2021 14:22:21 -0.00, -75.31 -0.51, -73.19 242.00 80
9 08/10/2021 02:43:59 -0.01, -75.30 -0.55, -77.78 281.72 80
10 08/11/2021 02:20:40 0.01, -75.32 0.59, -72.79 288.84 80
11 08/12/2021 14:42:11 0.01, -75.37 0.43, -77.35 224.67 80
12 08/13/2021 14:18:50 -0.00, -75.39 -0.66, -72.35 346.37 80
